Tracking 31027 objects as of 19-Jul-2025
HD Live streaming from Space Station
objects crossing your sky now

SITRO-AIS-10

Track SITRO-AIS-10 now!
10-day predictions
SITRO-AIS-10 is classified as:


NORAD ID: 57199
Int'l Code: 2023-091AK
Perigee: 490.7 km
Apogee: 504.2 km
Inclination: 97.6 °
Period: 94.4 minutes
Semi major axis: 6868 km
RCS: Unknown
Launch date: June 27, 2023
Source: (TBD)
Launch site: VOSTOCHNY COSMODROME (VOSTO)

Uplink (MHz):
Downlink (MHz): 401.290
Beacon (MHz):
Mode: 2k4 GMSK_USP
Call sign: SC2212
Status: Unknown

Your satellite tracking list
STARLINK-6351
Track 1 satellite(s)




NASA's NSSDC Master Catalog

Two Line Element Set (TLE):
1 57199U 23091AK  25199.87207418  .00010212  00000-0  40946-3 0  9991
2 57199  97.5569 260.0227 0009805 166.2920 193.8586 15.25165434113743
Source of the keplerian elements: AFSPC